Location: Unspecified
(36.0000°N, 0.0000°E)
Time: 21:34:55
(UTC+00:00)

Tiangong 2 - Visible Passes

Search period start: 20 May 2019 00:00
Search period end: 30 May 2019 00:00
Orbit: 379 x 387 km, 42.8° (Epoch: 20 May)

Date Brightness Start Highest point End Pass type
(mag) Time Alt. Az. Time Alt. Az. Time Alt. Az.
20 May 2.3 20:56:08 10° W 20:59:07 41° NNW 21:00:27 26° NE visible
21 May 1.3 19:55:56 10° WSW 19:59:03 70° NNW 20:02:11 10° ENE visible
21 May 3.3 21:33:27 10° WNW 21:36:04 24° N 21:36:04 24° N visible
22 May 3.0 20:33:05 10° WNW 20:35:54 30° NNW 20:38:43 10° NE visible
22 May 4.3 22:10:34 10° NW 22:11:20 14° NW 22:11:20 14° NW visible
23 May 2.3 19:32:45 10° W 19:35:44 42° NNW 19:38:45 10° NE visible
23 May 3.4 21:10:22 10° WNW 21:12:55 22° N 21:14:10 18° NNE visible
24 May 3.3 20:10:02 10° WNW 20:12:41 24° N 20:15:20 10° NE visible
24 May 3.5 21:47:15 10° NW 21:49:04 23° NNW 21:49:04 23° NNW visible
25 May 3.3 20:47:09 10° NW 20:49:44 23° N 20:51:41 14° NE visible
25 May 4.5 22:23:47 10° WNW 22:23:51 10° WNW 22:23:51 10° WNW visible
26 May 3.3 19:46:55 10° WNW 19:49:28 22° N 19:52:02 10° NE visible
26 May 2.6 21:23:48 10° NW 21:26:25 33° N 21:26:25 33° N visible
27 May 3.0 20:23:47 10° NW 20:26:30 26° N 20:28:57 11° ENE visible
27 May 3.9 22:00:20 10° WNW 22:01:07 16° WNW 22:01:07 16° WNW visible
28 May 1.6 21:00:18 10° WNW 21:03:22 50° NNE 21:03:38 48° NE visible
29 May 2.5 20:00:18 10° NW 20:03:12 33° NNE 20:06:05 10° E visible
29 May 3.2 21:36:57 10° WNW 21:38:20 23° W 21:38:20 23° W visible
